TimeCDT,TemperatureF,Dew PointF,Humidity,Sea Level PressureIn,VisibilityMPH,Wind Direction,Wind SpeedMPH,Gust SpeedMPH,PrecipitationIn,Events,Conditions,WindDirDegrees,DateUTC
12:54 AM,73.9,64.9,73,30.09,10.0,South,15.0,21.9,N/A,,Clear,190,2013-08-25 05:54:00
1:54 AM,73.9,64.9,73,30.09,10.0,South,10.4,-,N/A,,Scattered Clouds,190,2013-08-25 06:54:00
2:54 AM,73.9,66.0,76,30.08,10.0,SSW,13.8,-,N/A,,Clear,200,2013-08-25 07:54:00
3:54 AM,73.9,66.0,76,30.09,10.0,SSW,13.8,-,N/A,,Scattered Clouds,200,2013-08-25 08:54:00
4:54 AM,73.0,66.9,81,30.08,10.0,SSW,11.5,-,N/A,,Clear,210,2013-08-25 09:54:00
5:54 AM,73.0,66.9,81,30.09,10.0,SSW,11.5,-,N/A,,Clear,200,2013-08-25 10:54:00
6:54 AM,73.0,66.9,81,30.10,9.0,SSW,12.7,-,N/A,,Clear,200,2013-08-25 11:54:00
7:54 AM,75.0,66.9,76,30.10,10.0,SSW,12.7,-,N/A,,Clear,210,2013-08-25 12:54:00
8:54 AM,77.0,68.0,74,30.09,10.0,SW,12.7,-,N/A,,Clear,220,2013-08-25 13:54:00
9:54 AM,80.1,68.0,67,30.08,10.0,SW,11.5,-,N/A,,Clear,230,2013-08-25 14:54:00
10:54 AM,84.0,70.0,63,30.07,10.0,SW,11.5,17.3,N/A,,Clear,220,2013-08-25 15:54:00
11:54 AM,86.0,69.1,57,30.06,10.0,SW,13.8,19.6,N/A,,Clear,220,2013-08-25 16:54:00
12:54 PM,88.0,70.0,55,30.04,10.0,SW,17.3,-,N/A,,Clear,220,2013-08-25 17:54:00
1:54 PM,90.0,70.0,52,30.02,10.0,SW,12.7,20.7,N/A,,Clear,220,2013-08-25 18:54:00
2:54 PM,91.0,69.1,48,30.01,10.0,SSW,15.0,19.6,N/A,,Clear,210,2013-08-25 19:54:00
3:54 PM,91.0,70.0,50,30.00,10.0,SSW,15.0,20.7,N/A,,Clear,200,2013-08-25 20:54:00
4:54 PM,91.0,70.0,50,29.99,10.0,SW,10.4,19.6,N/A,,Clear,220,2013-08-25 21:54:00
5:54 PM,91.0,70.0,50,30.00,10.0,SW,9.2,16.1,N/A,,Clear,230,2013-08-25 22:54:00
6:54 PM,88.0,70.0,55,30.00,10.0,SW,9.2,-,N/A,,Clear,220,2013-08-25 23:54:00
7:54 PM,84.0,72.0,67,30.01,10.0,SW,11.5,-,N/A,,Clear,220,2013-08-26 00:54:00
8:54 PM,82.0,71.1,69,30.03,10.0,SW,11.5,-,N/A,,Clear,220,2013-08-26 01:54:00
9:54 PM,80.1,71.1,74,30.04,10.0,SW,11.5,-,N/A,,Clear,220,2013-08-26 02:54:00
10:54 PM,79.0,71.1,77,30.02,10.0,SW,10.4,-,N/A,,Clear,220,2013-08-26 03:54:00
11:54 PM,78.1,70.0,76,30.00,9.0,SW,12.7,19.6,N/A,,Clear,220,2013-08-26 04:54:00